Weather History for KDPL - March, 2012

Change the Weather History Date:

Sunday, March 11, 2012

  Actual Average (KGSB) Record (KGSB)
Temperature  
Mean Temperature 46 °F -  
Max Temperature 62 °F 61 °F 84 °F (2006)
Min Temperature 30 °F 41 °F 32 °F (1998)
Degree Days  
Heating Degree Days 19    
Moisture  
Dew Point 27 °F    
Average Humidity 57    
Maximum Humidity 100    
Minimum Humidity 15    
Precipitation  
Precipitation 0.00 in - - ()
Sea Level Pressure  
Sea Level Pressure 30.54 in    
Wind  
Wind Speed 2 mph (East)    
Max Wind Speed 9 mph    
Max Gust Speed -    
Visibility 10 miles    
Events      
Averages and records for this station are not official NWS values.
T = Trace of Precipitation, MM = Missing Value Source: NWS Daily Summary

Daily Weather History Graph

Daily Weather History Graph

Search for Another Location

Airport or City:

Trip Planner

Search our weather history database for the weather conditions in past years. The results will help you decide how hot, cold, wet, or windy it might be!

Date:

Astronomy

Mar. 11, 2012 Rise Set
Actual Time 7:27 AM EDT 7:16 PM EDT
Civil Twilight 7:02 AM EDT 7:41 PM EDT
Nautical Twilight 6:32 AM EDT 8:11 PM EDT
Astronomical Twilight 6:03 AM EDT 8:40 PM EDT
Moon 11:25 PM EDT (3/11) 9:12 AM EDT (3/11)
Length of Visible Light 12h 39m
Length of Day
11h 49m
Waning Gibbous, 85% of the Moon is Illuminated
Mar 11
Waning Gibbous
Mar 14
Last Quarter
Mar 22
New
Mar 30
First Quarter
Apr 6
Full

Hourly Weather History & Observations

Time (EDT) Temp. Windchill Dew Point Humidity Pressure Visibility Wind Dir Wind Speed Gust Speed Precip Events Conditions
12:15 AM 37.4 °F - 32.0 °F 81% 30.56 in 10.0 mi Calm Calm - N/A   Clear
12:35 AM 37.4 °F - 32.0 °F 81% 30.56 in 10.0 mi Calm Calm - N/A   Clear
12:55 AM 35.6 °F - 32.0 °F 87% 30.56 in 10.0 mi Calm Calm - N/A   Clear
1:15 AM 33.8 °F - 32.0 °F 93% 30.56 in 10.0 mi Calm Calm - N/A   Clear
1:35 AM 35.6 °F - 30.2 °F 81% 30.55 in 10.0 mi Calm Calm - N/A   Clear
1:55 AM 33.8 °F - 32.0 °F 93% 30.55 in 10.0 mi Calm Calm - N/A   Clear
3:35 AM 32.0 °F - 32.0 °F 100% 30.54 in 10.0 mi Calm Calm - N/A   Clear
3:55 AM 32.0 °F - 32.0 °F 100% 30.54 in 10.0 mi Calm Calm - N/A   Clear
4:15 AM 32.0 °F - 30.2 °F 93% 30.53 in 10.0 mi Calm Calm - N/A   Clear
4:35 AM 33.8 °F - 30.2 °F 87% 30.52 in 10.0 mi Calm Calm - N/A   Clear
4:55 AM 32.0 °F - 30.2 °F 93% 30.52 in 10.0 mi Calm Calm - N/A   Clear
5:15 AM 32.0 °F - 30.2 °F 93% 30.52 in 10.0 mi Calm Calm - N/A   Clear
5:35 AM 30.2 °F - 30.2 °F 100% 30.52 in 10.0 mi Calm Calm - N/A   Clear
5:55 AM 30.2 °F - 30.2 °F 100% 30.54 in 10.0 mi Calm Calm - N/A   Clear
6:15 AM 32.0 °F - 30.2 °F 93% 30.55 in 10.0 mi Calm Calm - N/A   Clear
6:35 AM 30.2 °F - 30.2 °F 100% 30.56 in 10.0 mi Calm Calm - N/A   Clear
6:55 AM 32.0 °F - 30.2 °F 93% 30.57 in 10.0 mi Calm Calm - N/A   Clear
7:15 AM 32.0 °F - 30.2 °F 93% 30.58 in 10.0 mi Calm Calm - N/A   Clear
7:35 AM 32.0 °F - 32.0 °F 100% 30.59 in 10.0 mi Calm Calm - N/A   Clear
7:55 AM 32.0 °F 28.7 °F 30.2 °F 93% 30.59 in 10.0 mi North 3.5 mph - N/A   Clear
8:15 AM 33.8 °F 29.6 °F 32.0 °F 93% 30.59 in 10.0 mi NNE 4.6 mph - N/A   Clear
8:55 AM 37.4 °F 32.8 °F 32.0 °F 81% 30.59 in 10.0 mi NNE 5.8 mph - N/A   Clear
9:15 AM 41.0 °F 39.0 °F 33.8 °F 76% 30.59 in 7.0 mi NE 3.5 mph - N/A   Clear
9:35 AM 42.8 °F - 33.8 °F 70% 30.60 in 10.0 mi Calm Calm - N/A   Clear
9:55 AM 44.6 °F 42.2 °F 32.0 °F 61% 30.60 in 10.0 mi East 4.6 mph - N/A   Clear
10:15 AM 46.4 °F 42.4 °F 30.2 °F 53% 30.60 in 10.0 mi East 8.1 mph - N/A   Clear
10:35 AM 48.2 °F - 24.8 °F 40% 30.61 in 10.0 mi ENE 8.1 mph - N/A   Clear
10:55 AM 50.0 °F - 24.8 °F 37% 30.60 in 10.0 mi ENE 6.9 mph - N/A   Clear
11:15 AM 51.8 °F - 24.8 °F 35% 30.60 in 10.0 mi NE 5.8 mph - N/A   Clear
11:35 AM 53.6 °F - 21.2 °F 28% 30.59 in 10.0 mi East 8.1 mph - N/A   Clear
11:55 AM 53.6 °F - 19.4 °F 26% 30.59 in 10.0 mi East 8.1 mph - N/A   Clear
12:15 PM 55.4 °F - 21.2 °F 26% 30.59 in 10.0 mi ESE 5.8 mph - N/A   Clear
12:55 PM 55.4 °F - 17.6 °F 23% 30.58 in 10.0 mi East 9.2 mph - N/A   Clear
1:15 PM 55.4 °F - 17.6 °F 23% 30.58 in 10.0 mi NE 3.5 mph - N/A   Clear
1:35 PM 57.2 °F - 17.6 °F 21% 30.57 in 10.0 mi ESE 5.8 mph - N/A   Clear
1:55 PM 59.0 °F - 19.4 °F 22% 30.55 in 10.0 mi East 5.8 mph - N/A   Clear
2:15 PM 59.0 °F - 14.0 °F 17% 30.54 in 10.0 mi East 4.6 mph - N/A   Clear
2:35 PM 60.8 °F - 12.2 °F 15% 30.53 in 10.0 mi ESE 3.5 mph - N/A   Clear
2:55 PM 60.8 °F - 17.6 °F 19% 30.52 in 10.0 mi East 4.6 mph - N/A   Clear
3:15 PM 60.8 °F - 17.6 °F 19% 30.51 in 10.0 mi ESE 5.8 mph - N/A   Clear
3:35 PM 62.6 °F - 19.4 °F 19% 30.50 in 10.0 mi ESE 4.6 mph - N/A   Clear
3:55 PM 62.6 °F - 17.6 °F 18% 30.49 in 10.0 mi SE 3.5 mph - N/A   Clear
4:15 PM 62.6 °F - 19.4 °F 19% 30.49 in 10.0 mi ESE 3.5 mph - N/A   Clear
4:35 PM 62.6 °F - 19.4 °F 19% 30.48 in 10.0 mi SE 3.5 mph - N/A   Clear
4:55 PM 62.6 °F - 19.4 °F 19% 30.48 in 10.0 mi East 4.6 mph - N/A   Clear
5:15 PM 62.6 °F - 19.4 °F 19% 30.48 in 10.0 mi South 3.5 mph - N/A   Clear
5:35 PM 62.6 °F - 19.4 °F 19% 30.48 in 10.0 mi Calm Calm - N/A   Clear
5:55 PM 62.6 °F - 19.4 °F 19% 30.47 in 10.0 mi ESE 3.5 mph - N/A   Clear
6:15 PM 62.6 °F - 21.2 °F 20% 30.47 in 10.0 mi Calm Calm - N/A   Clear
6:35 PM 60.8 °F - 28.4 °F 29% 30.47 in 10.0 mi Calm Calm - N/A   Clear
6:55 PM 55.4 °F - 35.6 °F 47% 30.47 in 10.0 mi Calm Calm - N/A   Clear
7:15 PM 50.0 °F - 35.6 °F 58% 30.46 in 10.0 mi Calm Calm - N/A   Clear
7:35 PM 46.4 °F - 35.6 °F 66% 30.46 in 10.0 mi Calm Calm - N/A   Clear
7:55 PM 44.6 °F - 33.8 °F 66% 30.46 in 10.0 mi Calm Calm - N/A   Clear
8:15 PM 46.4 °F 45.2 °F 33.8 °F 62% 30.46 in 10.0 mi SSE 3.5 mph - N/A   Clear
8:35 PM 46.4 °F - 35.6 °F 66% 30.47 in 10.0 mi Calm Calm - N/A   Clear
8:55 PM 44.6 °F - 35.6 °F 71% 30.48 in 10.0 mi Calm Calm - N/A   Clear
9:15 PM 44.6 °F - 37.4 °F 76% 30.48 in 10.0 mi Calm Calm - N/A   Clear
9:35 PM 42.8 °F - 37.4 °F 81% 30.48 in 10.0 mi Calm Calm - N/A   Clear
9:55 PM 42.8 °F - 37.4 °F 81% 30.48 in 10.0 mi Calm Calm - N/A   Clear
10:15 PM 42.8 °F - 37.4 °F 81% 30.48 in 10.0 mi Calm Calm - N/A   Clear
10:35 PM 41.0 °F - 37.4 °F 87% 30.48 in 10.0 mi Calm Calm - N/A   Clear
10:55 PM 41.0 °F - 37.4 °F 87% 30.48 in 10.0 mi Calm Calm - N/A   Clear
11:15 PM 41.0 °F - 37.4 °F 87% 30.48 in 10.0 mi Calm Calm - N/A   Clear
11:35 PM 41.0 °F - 37.4 °F 87% 30.48 in 10.0 mi Calm Calm - N/A   Clear
11:55 PM 39.2 °F - 37.4 °F 93% 30.47 in 10.0 mi Calm Calm - N/A   Clear
12:15 AM 39.2 °F - 37.4 °F 93% 30.47 in 10.0 mi Calm Calm - N/A   Clear
12:35 AM 37.4 °F - 35.6 °F 93% 30.47 in 10.0 mi Calm Calm - N/A   Clear
12:55 AM 37.4 °F - 35.6 °F 93% 30.47 in 10.0 mi Calm Calm - N/A   Clear